Regional Weather Roundup
Issued by NWS Newport/Morehead, NC

Current Version | Previous Version | Text Only | Print | Product List | Glossary On
Versions: 1 2 3 4 5 6 7 8 9 10 11 12 13 14 15 16 17 18 19 20 21 22 23 24 25 26 27 28 29 30 31 32 33 34 35 36 37 38 39 40 41 42 43 44 45 46 47 48 49 50
000 ASUS42 KMHX 182013 RWRMHX WEATHER ROUNDUP FOR EASTERN NORTH CAROLINA NATIONAL WEATHER SERVICE NEWPORT/MOREHEAD CITY NC 400 PM EDT WED OCT 18 2017 NOTE: "FAIR" INDICATES FEW OR NO CLOUDS BELOW 12,000 FEET WITH NO SIGNIFICANT WEATHER AND/OR OBSTRUCTIONS TO VISIBILITY NCZ015>017-031-032-045>047-102-103-182100- NORTH COAST CITY SKY/WX TMP DP RH WIND PRES REMARKS EDENTON SUNNY 70 56 61 CALM 30.33S ELIZABETH CITY SUNNY 69 54 58 E8 30.33S KITTY HAWK CLEAR 67 53 61 NE3 30.31S MANTEO SUNNY N/A N/A N/A NE13 30.32S $$ NCZ045>047-081-094-103-104-182100- CENTRAL COAST CITY SKY/WX TMP DP RH WIND PRES REMARKS FRISCO SUNNY 71 59 65 NE9G18 30.29S $$ NCZ095-097-098-100-101-182100- SOUTHERN COAST CITY SKY/WX TMP DP RH WIND PRES REMARKS BEAUFORT SUNNY 71 56 58 NE14 30.28F CEDAR ISLAND NOT AVBL JACKSONVILLE SUNNY 73 53 49 NE10 30.28F PINEY ISLAND N/A N/A N/A N/A NE16 30.29F WILMINGTON SUNNY 74 53 48 NE12 30.27S $$ NCZ011>013-027>030-043-044-078>080-089-090>093-098-182100- COASTAL PLAIN CITY SKY/WX TMP DP RH WIND PRES REMARKS AHOSKIE SUNNY 67 48 50 CALM 30.33F CLINTON SUNNY 72 51 47 NE5 30.31S ELIZABETHTOWN NOT AVBL GOLDSBORO SUNNY 71 44 39 NE6 30.29F GREENVILLE SUNNY 70 48 46 E3 30.32F HAVELOCK SUNNY 72 57 59 NE12 30.29F KENANSVILLE SUNNY 72 46 40 NE5 30.30F KINSTON SUNNY 72 46 40 MISG 30.31F NEW BERN SUNNY 72 54 53 NE10 30.30F RICHLANDS SUNNY 72 51 47 NE7 30.29F ROCKY MOUNT SUNNY 70 48 45 VRB5 30.32F WASHINGTON MOSUNNY 70 54 56 E6 30.31F WHITEVILLE SUNNY 72 52 49 E3 30.27F $$ AMZ130-135-150-152-154-156-158-170-250-252-270-ANZ085-086-088-633-658-670-182100- MARINE OBSERVATIONS STATION/POSITION TIME TEMP WIND PRES WAVE SWELL AIR SEA DIR/SP/G HT/PER HT/PER (UTC) (F) (DEG/KT/KT) (MB) (FT/S) (FT/S) CHESAPEAKE LIGHT NOT AVBL 64 E VA BEACH 1950 64 68 40/ 10/ 12 1027.2 4/ 9 3/ 9 DUCK 1942 64 68 50/ 11/ 13 1026.5 2 E DUCK 2000 70 N/A 4/ 8 2/11 OREGON INLET 1942 67 64 30/ 10/ 15 1026.2 13E OREGON INLT 1948 71 N/A 5/ 9 3/ 9 HATTERAS CG 1942 67 67 30/ 11/ 20 1025.5 DIAMOND BUOY 1950 72 82 30/ 19/ 25 1024.2 7/ 6 3/10 CAPE LOOKOUT 2000 68 20/ 19/ 23 1024.9 BEAUFORT LAB 1942 69 68 40/ 11/ 17 1025.6 30 SE NEW RVR IN 1908 70 50/ 16/ 23 1024.7 30 SE NEW RVR IN NOT AVBL 27 SE WRIGHTSVLE 1908 71 77 70/ 17/ 21 1024.4 5 SE WRIGHTSVLE 1908 70 75 60/ 14/ 21 1024.9 225 S CAPE HAT 1950 75 80 50/ 23/ 29 1019.4 10/ 8 3/11 41 SE CHARLESTON 2000 73 80 40/ 21/ 25 1022.5 $$

USA.gov is the U.S. government's official web portal to all federal, state and local government web resources and services.